SWA3988 KLAS-KDEN

Flight info

Callsign SWA3988
Flight time 1h 15m
Altitude 37000
Route GIDGT3 TUKRR BUMMP SSKII4
Aircraft B38M/M-SDE1FGHILORVWXY/HB1

Departure

Time 2026-05-05 16:16
Airport Harry Reid International Airport (KLAS)

Arrival

Time 2026-05-05 17:32
Airport Denver International Airport (KDEN)
Time Latitude Longitude Altitude Speed Heading
2026-05-05 16:02 36.08166 -115.14819 2190 ft 0 kts 65°
2026-05-05 16:07 36.08163 -115.14828 2190 ft 4 kts 67°
2026-05-05 16:07 36.08155 -115.14852 2190 ft 3 kts 66°
2026-05-05 16:08 36.08144 -115.14882 2192 ft 4 kts 66°
2026-05-05 16:08 36.08141 -115.14889 2192 ft 1 kts 66°
2026-05-05 16:10 36.08141 -115.14884 2191 ft 2 kts 97°
2026-05-05 16:11 36.08105 -115.14878 2192 ft 10 kts 185°
2026-05-05 16:11 36.07853 -115.14714 2190 ft 19 kts 96°
2026-05-05 16:12 36.07841 -115.14516 2191 ft 26 kts 94°
2026-05-05 16:12 36.07825 -115.14069 2191 ft 27 kts 90°
2026-05-05 16:13 36.07827 -115.13365 2193 ft 28 kts 90°
2026-05-05 16:13 36.07826 -115.13120 2192 ft 29 kts 89°
2026-05-05 16:13 36.07827 -115.12869 2194 ft 29 kts 89°
2026-05-05 16:14 36.07823 -115.12353 2190 ft 29 kts 92°
2026-05-05 16:14 36.07686 -115.12122 2194 ft 13 kts 179°
2026-05-05 16:15 36.07642 -115.12200 2192 ft 3 kts 270°
2026-05-05 16:15 36.07641 -115.13163 2196 ft 117 kts 270°
2026-05-05 16:16 36.07650 -115.15846 2602 ft 175 kts 268°
2026-05-05 16:16 36.07702 -115.19051 3627 ft 201 kts 268°
2026-05-05 16:17 36.07662 -115.22622 4888 ft 228 kts 268°
2026-05-05 16:17 36.07652 -115.24671 5361 ft 249 kts 270°
2026-05-05 16:18 36.09284 -115.28292 7094 ft 259 kts 327°
2026-05-05 16:18 36.10971 -115.29067 7982 ft 261 kts 347°
2026-05-05 16:18 36.13529 -115.29573 8919 ft 279 kts
2026-05-05 16:19 36.15414 -115.28816 9451 ft 294 kts 35°
2026-05-05 16:19 36.16789 -115.26993 10287 ft 293 kts 60°
2026-05-05 16:19 36.18520 -115.22097 11078 ft 331 kts 69°
2026-05-05 16:20 36.19591 -115.16357 12004 ft 355 kts 92°
2026-05-05 16:21 36.19621 -115.05103 14472 ft 373 kts 91°
2026-05-05 16:22 36.19620 -114.95264 16387 ft 389 kts 91°
2026-05-05 16:22 36.19614 -114.88489 17588 ft 399 kts 91°
2026-05-05 16:23 36.19604 -114.81541 18680 ft 409 kts 91°
2026-05-05 16:23 36.19598 -114.78008 19221 ft 412 kts 91°
2026-05-05 16:23 36.19581 -114.70849 20268 ft 420 kts 92°
2026-05-05 16:24 36.19575 -114.67217 20765 ft 424 kts 92°
2026-05-05 16:24 36.19568 -114.63546 21278 ft 428 kts 92°
2026-05-05 16:24 36.19549 -114.56118 22256 ft 436 kts 92°
2026-05-05 16:25 36.19538 -114.52347 22739 ft 440 kts 92°
2026-05-05 16:25 36.19513 -114.44706 23646 ft 448 kts 92°
2026-05-05 16:25 36.19497 -114.40840 24031 ft 451 kts 92°
2026-05-05 16:26 36.19464 -114.33005 24804 ft 459 kts 93°
2026-05-05 16:26 36.19432 -114.25052 25551 ft 466 kts 91°
2026-05-05 16:27 36.19621 -114.22389 25765 ft 471 kts 83°
2026-05-05 16:27 36.20110 -114.18363 26142 ft 475 kts 84°
2026-05-05 16:27 36.20590 -114.14310 26502 ft 478 kts 84°
2026-05-05 16:27 36.21073 -114.10262 26855 ft 482 kts 84°
2026-05-05 16:28 36.21724 -114.04791 27215 ft 488 kts 84°
2026-05-05 16:28 36.22058 -114.01978 27432 ft 490 kts 84°
2026-05-05 16:28 36.22554 -113.97789 27805 ft 493 kts 84°
2026-05-05 16:28 36.23051 -113.93576 28125 ft 497 kts 84°
2026-05-05 16:29 36.23552 -113.89325 28422 ft 501 kts 84°
2026-05-05 16:29 36.24054 -113.85041 28727 ft 504 kts 85°
2026-05-05 16:29 36.24559 -113.80728 29058 ft 508 kts 85°
2026-05-05 16:29 36.25065 -113.76383 29353 ft 511 kts 85°
2026-05-05 16:30 36.25572 -113.72014 29639 ft 515 kts 85°
2026-05-05 16:30 36.26084 -113.67601 29912 ft 519 kts 85°
2026-05-05 16:30 36.26595 -113.63170 30158 ft 522 kts 85°
2026-05-05 16:30 36.27102 -113.58757 30405 ft 525 kts 85°
2026-05-05 16:31 36.27624 -113.54207 30618 ft 529 kts 85°
2026-05-05 16:31 36.28141 -113.49683 30848 ft 532 kts 85°
2026-05-05 16:31 36.28659 -113.45132 31098 ft 535 kts 86°
2026-05-05 16:31 36.29172 -113.40618 31345 ft 537 kts 86°
2026-05-05 16:32 36.29690 -113.36031 31608 ft 538 kts 86°
2026-05-05 16:32 36.30215 -113.31376 31887 ft 540 kts 86°
2026-05-05 16:32 36.30735 -113.26756 32186 ft 541 kts 86°
2026-05-05 16:32 36.31497 -113.22167 32476 ft 548 kts 73°
2026-05-05 16:33 36.32935 -113.17780 32779 ft 551 kts 69°
2026-05-05 16:33 36.34440 -113.13400 32983 ft 554 kts 68°
2026-05-05 16:33 36.35947 -113.09072 33295 ft 555 kts 68°
2026-05-05 16:33 36.37486 -113.04692 33576 ft 556 kts 68°
2026-05-05 16:34 36.39035 -113.00282 33836 ft 558 kts 68°
2026-05-05 16:34 36.40588 -112.95858 34063 ft 559 kts 68°
2026-05-05 16:34 36.42138 -112.91437 34348 ft 559 kts 68°
2026-05-05 16:34 36.43687 -112.87011 34645 ft 558 kts 68°
2026-05-05 16:35 36.45234 -112.82584 34893 ft 559 kts 68°
2026-05-05 16:35 36.46782 -112.78147 35155 ft 559 kts 68°
2026-05-05 16:35 36.48324 -112.73720 35443 ft 559 kts 68°
2026-05-05 16:35 36.49867 -112.69286 35716 ft 558 kts 68°
2026-05-05 16:36 36.51403 -112.64865 35962 ft 558 kts 67°
2026-05-05 16:36 36.52939 -112.60438 36222 ft 558 kts 67°
2026-05-05 16:36 36.54473 -112.56007 36471 ft 558 kts 67°
2026-05-05 16:36 36.56005 -112.51577 36733 ft 557 kts 67°
2026-05-05 16:37 36.57535 -112.47150 36872 ft 558 kts 67°
2026-05-05 16:37 36.59070 -112.42699 36864 ft 559 kts 67°
2026-05-05 16:37 36.62120 -112.33833 36842 ft 557 kts 67°
2026-05-05 16:38 36.65172 -112.24939 36838 ft 559 kts 67°
2026-05-05 16:38 36.68214 -112.16046 36828 ft 559 kts 67°
2026-05-05 16:39 36.71263 -112.07106 36829 ft 560 kts 67°
2026-05-05 16:39 36.74303 -111.98165 36815 ft 560 kts 67°
2026-05-05 16:40 36.77343 -111.89199 36804 ft 562 kts 67°
2026-05-05 16:40 36.80379 -111.80221 36836 ft 562 kts 67°
2026-05-05 16:41 36.83406 -111.71243 36870 ft 561 kts 67°
2026-05-05 16:41 36.86803 -111.62490 36898 ft 558 kts 57°
2026-05-05 16:42 36.90776 -111.54125 36926 ft 561 kts 57°
2026-05-05 16:42 36.94770 -111.45733 36916 ft 561 kts 57°
2026-05-05 16:43 36.98727 -111.37398 36937 ft 563 kts 57°
2026-05-05 16:43 37.02717 -111.28973 36889 ft 562 kts 57°
2026-05-05 16:44 37.06705 -111.20531 36862 ft 564 kts 57°
2026-05-05 16:44 37.10688 -111.12077 36793 ft 563 kts 57°
2026-05-05 16:45 37.14674 -111.03594 36807 ft 565 kts 57°
2026-05-05 16:45 37.18652 -110.95110 36810 ft 564 kts 58°
2026-05-05 16:46 37.22627 -110.86605 36825 ft 566 kts 57°
2026-05-05 16:46 37.26603 -110.78080 36779 ft 567 kts 57°
2026-05-05 16:47 37.30586 -110.69519 36773 ft 567 kts 57°
2026-05-05 16:47 37.34561 -110.60950 36772 ft 569 kts 57°
2026-05-05 16:48 37.38541 -110.52347 36787 ft 570 kts 57°
2026-05-05 16:48 37.42518 -110.43730 36780 ft 569 kts 57°
2026-05-05 16:49 37.46489 -110.35105 36791 ft 570 kts 57°
2026-05-05 16:49 37.50454 -110.26466 36775 ft 570 kts 57°
2026-05-05 16:50 37.54423 -110.17798 36773 ft 571 kts 57°
2026-05-05 16:50 37.58383 -110.09125 36787 ft 571 kts 57°
2026-05-05 16:51 37.62316 -110.00488 36789 ft 572 kts 57°
2026-05-05 16:51 37.66275 -109.91771 36814 ft 572 kts 57°
2026-05-05 16:52 37.70230 -109.83042 36846 ft 573 kts 56°
2026-05-05 16:52 37.74180 -109.74296 36833 ft 573 kts 56°
2026-05-05 16:53 37.78127 -109.65537 36887 ft 574 kts 56°
2026-05-05 16:53 37.82067 -109.56768 36872 ft 573 kts 56°
2026-05-05 16:54 37.85999 -109.47992 36870 ft 574 kts 56°
2026-05-05 16:54 37.89921 -109.39216 36812 ft 572 kts 56°
2026-05-05 16:55 37.93839 -109.30423 36798 ft 574 kts 56°
2026-05-05 16:55 37.97761 -109.21599 36795 ft 574 kts 56°
2026-05-05 16:56 38.01673 -109.12778 36800 ft 575 kts 56°
2026-05-05 16:56 38.05584 -109.03939 36787 ft 574 kts 56°
2026-05-05 16:57 38.09477 -108.95080 36798 ft 576 kts 58°
2026-05-05 16:57 38.13034 -108.85941 36798 ft 577 kts 59°
2026-05-05 16:58 38.16622 -108.76831 36800 ft 577 kts 59°
2026-05-05 16:58 38.20207 -108.67714 36784 ft 576 kts 58°
2026-05-05 16:59 38.23785 -108.58590 36797 ft 575 kts 59°
2026-05-05 16:59 38.27349 -108.49472 36801 ft 576 kts 58°
2026-05-05 17:00 38.30908 -108.40342 36806 ft 575 kts 58°
2026-05-05 17:00 38.34451 -108.31226 36771 ft 574 kts 58°
2026-05-05 17:01 38.37990 -108.22093 36808 ft 574 kts 59°
2026-05-05 17:01 38.41509 -108.12984 36828 ft 573 kts 58°
2026-05-05 17:02 38.44999 -108.03930 36895 ft 574 kts 58°
2026-05-05 17:02 38.48475 -107.94752 36912 ft 574 kts 59°
2026-05-05 17:03 38.51929 -107.85611 36898 ft 571 kts 59°
2026-05-05 17:03 38.55378 -107.76459 36896 ft 571 kts 59°
2026-05-05 17:04 38.58809 -107.67326 36856 ft 570 kts 59°
2026-05-05 17:04 38.62229 -107.58195 36809 ft 568 kts 59°
2026-05-05 17:05 38.65641 -107.49097 36772 ft 566 kts 59°
2026-05-05 17:05 38.69079 -107.40044 36782 ft 565 kts 59°
2026-05-05 17:06 38.72489 -107.31017 36784 ft 563 kts 59°
2026-05-05 17:06 38.75889 -107.21991 36817 ft 562 kts 59°
2026-05-05 17:07 38.79273 -107.12981 36818 ft 560 kts 59°
2026-05-05 17:07 38.82636 -107.04000 36829 ft 558 kts 59°
2026-05-05 17:08 38.85982 -106.95036 36805 ft 556 kts 59°
2026-05-05 17:08 38.89310 -106.86096 36783 ft 554 kts 60°
2026-05-05 17:09 38.92605 -106.77218 36816 ft 554 kts 60°
2026-05-05 17:09 38.95885 -106.68353 36080 ft 548 kts 60°
2026-05-05 17:10 38.97529 -106.63903 35164 ft 554 kts 60°
2026-05-05 17:10 38.99176 -106.59435 34506 ft 553 kts 60°
2026-05-05 17:10 39.00809 -106.54976 33981 ft 549 kts 60°
2026-05-05 17:10 39.02435 -106.50540 33244 ft 549 kts 60°
2026-05-05 17:11 39.04059 -106.46100 32655 ft 545 kts 60°
2026-05-05 17:11 39.05663 -106.41709 32170 ft 538 kts 61°
2026-05-05 17:11 39.07244 -106.37375 31672 ft 532 kts 61°
2026-05-05 17:11 39.08807 -106.33083 31134 ft 528 kts 61°
2026-05-05 17:12 39.10351 -106.28840 30585 ft 524 kts 61°
2026-05-05 17:12 39.11895 -106.24589 30036 ft 519 kts 61°
2026-05-05 17:12 39.13417 -106.20394 29390 ft 515 kts 62°
2026-05-05 17:12 39.14922 -106.16236 28740 ft 510 kts 62°
2026-05-05 17:13 39.16409 -106.12104 27999 ft 507 kts 62°
2026-05-05 17:13 39.17880 -106.08017 27404 ft 501 kts 62°
2026-05-05 17:13 39.19265 -106.04164 26769 ft 497 kts 63°
2026-05-05 17:13 39.20713 -106.00130 26084 ft 494 kts 63°
2026-05-05 17:14 39.22151 -105.96117 25415 ft 490 kts 63°
2026-05-05 17:14 39.23574 -105.92147 24771 ft 487 kts 63°
2026-05-05 17:14 39.24999 -105.88202 24227 ft 481 kts 64°
2026-05-05 17:14 39.26393 -105.84330 23772 ft 473 kts 64°
2026-05-05 17:15 39.27769 -105.80506 23322 ft 466 kts 64°
2026-05-05 17:15 39.28669 -105.78001 22961 ft 462 kts 64°
2026-05-05 17:15 39.30010 -105.74266 22474 ft 455 kts 64°
2026-05-05 17:15 39.31766 -105.69367 21889 ft 445 kts 64°
2026-05-05 17:16 39.32631 -105.66977 21583 ft 441 kts 64°
2026-05-05 17:16 39.33935 -105.63416 21107 ft 436 kts 64°
2026-05-05 17:16 39.35223 -105.59888 20691 ft 430 kts 64°
2026-05-05 17:16 39.36488 -105.56414 20244 ft 425 kts 64°
2026-05-05 17:17 39.37732 -105.52995 19816 ft 412 kts 64°
2026-05-05 17:17 39.38927 -105.49707 19443 ft 397 kts 64°
2026-05-05 17:17 39.40076 -105.46543 19066 ft 383 kts 64°
2026-05-05 17:17 39.41173 -105.43454 18672 ft 371 kts 69°
2026-05-05 17:18 39.41659 -105.40242 18249 ft 361 kts 90°
2026-05-05 17:18 39.41673 -105.37055 17889 ft 349 kts 89°
2026-05-05 17:18 39.41711 -105.33947 17505 ft 345 kts 89°
2026-05-05 17:18 39.41738 -105.30855 17142 ft 343 kts 90°
2026-05-05 17:19 39.41759 -105.27783 16797 ft 341 kts 90°
2026-05-05 17:19 39.41777 -105.24728 16452 ft 339 kts 90°
2026-05-05 17:19 39.41793 -105.21685 16111 ft 337 kts 90°
2026-05-05 17:19 39.41808 -105.18668 15779 ft 335 kts 90°
2026-05-05 17:20 39.41821 -105.15663 15435 ft 334 kts 90°
2026-05-05 17:20 39.41834 -105.12667 15096 ft 332 kts 89°
2026-05-05 17:20 39.41846 -105.09711 14761 ft 326 kts 89°
2026-05-05 17:20 39.41857 -105.06810 14419 ft 318 kts 89°
2026-05-05 17:21 39.41867 -105.03985 14100 ft 311 kts 89°
2026-05-05 17:21 39.41876 -105.01225 13810 ft 302 kts 89°
2026-05-05 17:21 39.41884 -104.98543 13446 ft 295 kts 89°
2026-05-05 17:22 39.41974 -104.93380 12862 ft 278 kts 83°
2026-05-05 17:22 39.42200 -104.90922 12651 ft 274 kts 84°
2026-05-05 17:22 39.42413 -104.88478 12327 ft 274 kts 84°
2026-05-05 17:22 39.42619 -104.86032 12033 ft 272 kts 84°
2026-05-05 17:23 39.42842 -104.83606 11729 ft 271 kts 84°
2026-05-05 17:23 39.43060 -104.81195 11443 ft 269 kts 84°
2026-05-05 17:23 39.43272 -104.78807 11180 ft 266 kts 85°
2026-05-05 17:23 39.43506 -104.76461 11015 ft 257 kts 79°
2026-05-05 17:24 39.44091 -104.74285 11007 ft 257 kts 69°
2026-05-05 17:24 39.44773 -104.72150 10965 ft 256 kts 69°
2026-05-05 17:24 39.45631 -104.70142 10935 ft 258 kts 49°
2026-05-05 17:24 39.46547 -104.69176 10942 ft 258 kts 30°
2026-05-05 17:25 39.47293 -104.68731 10959 ft 258 kts 19°
2026-05-05 17:25 39.48433 -104.68273 10983 ft 259 kts 16°
2026-05-05 17:25 39.50731 -104.67418 10977 ft 260 kts 15°
2026-05-05 17:25 39.52459 -104.66823 10972 ft 257 kts 11°
2026-05-05 17:26 39.54199 -104.66514 10957 ft 246 kts
2026-05-05 17:26 39.55871 -104.66397 10932 ft 238 kts
2026-05-05 17:26 39.57526 -104.66356 10604 ft 238 kts 359°
2026-05-05 17:26 39.59183 -104.66337 10274 ft 238 kts 360°
2026-05-05 17:27 39.60836 -104.66318 9955 ft 237 kts
2026-05-05 17:27 39.62473 -104.66298 9612 ft 235 kts
2026-05-05 17:27 39.64107 -104.66278 9268 ft 233 kts
2026-05-05 17:27 39.65719 -104.66260 8936 ft 230 kts
2026-05-05 17:28 39.67311 -104.66241 8608 ft 227 kts
2026-05-05 17:28 39.68875 -104.66222 8304 ft 223 kts
2026-05-05 17:28 39.70410 -104.66205 7999 ft 217 kts
2026-05-05 17:28 39.71841 -104.66189 7741 ft 198 kts
2026-05-05 17:29 39.73196 -104.66171 7464 ft 192 kts
2026-05-05 17:29 39.74529 -104.66155 7213 ft 190 kts
2026-05-05 17:29 39.75814 -104.66141 6977 ft 176 kts
2026-05-05 17:29 39.76990 -104.66125 6768 ft 165 kts
2026-05-05 17:30 39.78108 -104.66111 6544 ft 162 kts
2026-05-05 17:30 39.79227 -104.66097 6273 ft 159 kts
2026-05-05 17:30 39.80336 -104.66082 6025 ft 160 kts
2026-05-05 17:30 39.81452 -104.66074 5775 ft 161 kts
2026-05-05 17:31 39.82462 -104.66073 5583 ft 162 kts
2026-05-05 17:31 39.83574 -104.66052 5448 ft 153 kts
2026-05-05 17:31 39.84379 -104.66031 5413 ft 114 kts
2026-05-05 17:31 39.84971 -104.66019 5405 ft 66 kts
2026-05-05 17:32 39.85275 -104.66136 5394 ft 41 kts 333°
2026-05-05 17:32 39.85534 -104.66235 5394 ft 38 kts
2026-05-05 17:32 39.85796 -104.66233 5391 ft 37 kts
2026-05-05 17:32 39.86041 -104.66228 5389 ft 34 kts
2026-05-05 17:33 39.86269 -104.66228 5384 ft 31 kts
2026-05-05 17:33 39.86439 -104.66224 5384 ft 22 kts 351°
2026-05-05 17:33 39.86498 -104.66371 5381 ft 19 kts 269°
2026-05-05 17:33 39.86491 -104.66531 5378 ft 16 kts 255°
2026-05-05 17:34 39.86463 -104.66660 5378 ft 13 kts 260°
2026-05-05 17:34 39.86449 -104.66766 5379 ft 10 kts 264°
2026-05-05 17:34 39.86445 -104.66842 5379 ft 7 kts 266°
2026-05-05 17:34 39.86443 -104.66892 5379 ft 5 kts 266°
2026-05-05 17:35 39.86427 -104.66948 5378 ft 7 kts 215°
2026-05-05 17:35 39.86387 -104.66956 5378 ft 4 kts 182°
2026-05-05 17:35 39.86371 -104.66957 5379 ft 1 kts 180°
2026-05-05 17:35 39.86368 -104.66957 5379 ft 2 kts 180°
2026-05-05 17:36 39.86359 -104.66957 5378 ft 0 kts 180°
2026-05-05 17:36 39.86354 -104.66957 5378 ft 1 kts 180°
2026-05-05 17:36 39.86352 -104.66957 5378 ft 0 kts 180°